Погода в Морозовых Борках

Россия / Рязанская область     53°57′16″N   40°55′08″E
темп.,
°C
ветер,
м/с
пор.,
м/с
влажн.,
%
обл.,
%
осадки,
мм/ч
давл.,
гПа
погр.,
м
6 марта, сб
сб600:00−10зсз23900 0.0 101521
03:00−11зсз22890 0.0 101621
06:00−13зсз11900 0.0 101521
09:00−9з128630 0.0 1016122
12:00−5сз2382100 0.0 1016386
15:00−5сз348399 0.0 1015567
18:00−9зсз369457 0.0 1015135
21:00−12з239428 0.0 101570
7 марта, вс
вс700:00−13зюз369424 0.0 1015126
03:00−13зюз389312 0.0 1014146
06:00−13юз4109219 0.0 1012253
09:00−9юз7168160 0.0 1008599
12:00−6юз91690100 0.8 1004931
15:00−4юз101892100 2.3 9991289
18:00−2юз91792100 1.6 9961266
21:00−7зсз31185100 3.2 997486
8 марта, пн
пн800:00−9юз498667 0.0 999171
03:00−8юз6147962 0.0 999581
06:00−8зюз61390100 0.1 998580
09:00−7зюз6119399 0.4 998727
12:00−7з698099 0.6 1000889
15:00−5зсз7108199 0.7 10031065
18:00−8з5118797 0.1 1006700
21:00−10з4109381 0.1 1009272
9 марта, вт
вт900:00−12зсз359680 0.1 1011102
03:00−15сз239674 0.1 101281
06:00−17сз239878 0.0 101454
09:00−15ссз249488 0.0 1016202
12:00−11ссз348683 0.0 1016405
15:00−11ссз348592 0.0 1017555
18:00−13сз2393100 0.0 101847
21:00−16ссз239797 0.1 102047
10 марта, ср
ср1000:00−19с249497 0.0 102294
03:00−22ссз239575 0.0 102360
06:00−24ссз23980 0.0 102431
09:00−20ссз239210 0.0 1025170
12:00−15сз127995 0.0 1025368
15:00−13юз017598 0.0 1024456
18:00−15ююз2292100 0.0 102391
21:00−17вюв229699 0.1 102550